Meteo pe oră la Abkhazia

Astăzi, 3 August, Marţi

Timp Temperatura Precipitaţii Vânt Presiune Umiditate
00:00 +18°C° 0.2 mm 2 m/s 686 mmHg 85%
01:00 +18°C° 0.1 mm 2 m/s 686 mmHg 83%
02:00 +18°C° 0.1 mm 2 m/s 685 mmHg 82%
03:00 +18°C° 0 mm 2 m/s 685 mmHg 81%
04:00 +18°C° 0 mm 2 m/s 686 mmHg 80%
05:00 +18°C° 0 mm 2 m/s 686 mmHg 79%
06:00 +18°C° 0 mm 2 m/s 686 mmHg 78%
07:00 +20°C° 0 mm 2 m/s 686 mmHg 72%
08:00 +23°C° 0 mm 2 m/s 686 mmHg 67%
09:00 +26°C° 0 mm 1 m/s 687 mmHg 61%
10:00 +26°C° 0.1 mm 1 m/s 687 mmHg 61%
11:00 +27°C° 0.1 mm 2 m/s 687 mmHg 60%
12:00 +28°C° 0.1 mm 2 m/s 687 mmHg 60%
13:00 +27°C° 0.4 mm 2 m/s 687 mmHg 63%
14:00 +27°C° 0.4 mm 2 m/s 687 mmHg 67%
15:00 +27°C° 0.4 mm 2 m/s 687 mmHg 70%
16:00 +26°C° 0.6 mm 2 m/s 686 mmHg 74%
17:00 +26°C° 0.6 mm 2 m/s 686 mmHg 78%
18:00 +25°C° 0.6 mm 1 m/s 686 mmHg 82%
19:00 +24°C° 0 mm 2 m/s 686 mmHg 84%
20:00 +21°C° 0 mm 2 m/s 686 mmHg 86%
21:00 +20°C° 0 mm 2 m/s 686 mmHg 88%
22:00 +20°C° 0.1 mm 2 m/s 687 mmHg 85%
23:00 +20°C° 0.1 mm 2 m/s 687 mmHg 82%

Mâine, 4 August, Miercuri

Timp Temperatura Precipitaţii Vânt Presiune Umiditate
00:00 +20°C° 0.1 mm 2 m/s 687 mmHg 79%
01:00 +20°C° 0 mm 2 m/s 687 mmHg 78%
02:00 +19°C° 0 mm 2 m/s 687 mmHg 76%
03:00 +19°C° 0 mm 2 m/s 687 mmHg 74%
04:00 +19°C° 0.1 mm 2 m/s 687 mmHg 75%
05:00 +19°C° 0.1 mm 2 m/s 687 mmHg 75%
06:00 +19°C° 0.1 mm 2 m/s 687 mmHg 75%
07:00 +21°C° 0 mm 2 m/s 687 mmHg 71%
08:00 +24°C° 0 mm 2 m/s 688 mmHg 68%
09:00 +26°C° 0 mm 1 m/s 688 mmHg 64%
10:00 +27°C° 0 mm 2 m/s 688 mmHg 63%
11:00 +27°C° 0 mm 2 m/s 688 mmHg 63%
12:00 +28°C° 0 mm 2 m/s 688 mmHg 62%
13:00 +28°C° 0.6 mm 2 m/s 688 mmHg 64%
14:00 +28°C° 0.6 mm 2 m/s 688 mmHg 67%
15:00 +28°C° 0.6 mm 2 m/s 687 mmHg 70%
16:00 +27°C° 0.4 mm 2 m/s 687 mmHg 74%
17:00 +26°C° 0.4 mm 2 m/s 687 mmHg 79%
18:00 +25°C° 0.4 mm 2 m/s 687 mmHg 84%
19:00 +24°C° 0.2 mm 2 m/s 687 mmHg 85%
20:00 +23°C° 0.2 mm 2 m/s 687 mmHg 87%
21:00 +20°C° 0.2 mm 2 m/s 687 mmHg 89%
22:00 +20°C° 0.1 mm 2 m/s 687 mmHg 88%
23:00 +19°C° 0.1 mm 2 m/s 687 mmHg 88%

Poimâine, 5 August, Joi

Timp Temperatura Precipitaţii Vânt Presiune Umiditate
00:00 +20°C° 0.1 mm 1 m/s 687 mmHg 87%
01:00 +20°C° 0.1 mm 1 m/s 687 mmHg 87%
02:00 +18°C° 0.1 mm 2 m/s 687 mmHg 87%
03:00 +18°C° 0.1 mm 2 m/s 687 mmHg 86%
04:00 +18°C° 0 mm 2 m/s 687 mmHg 85%
05:00 +19°C° 0 mm 2 m/s 687 mmHg 83%
06:00 +19°C° 0 mm 2 m/s 687 mmHg 82%
07:00 +21°C° 0 mm 2 m/s 687 mmHg 76%
08:00 +24°C° 0 mm 1 m/s 687 mmHg 71%
09:00 +26°C° 0 mm 1 m/s 687 mmHg 65%
10:00 +27°C° 0 mm 2 m/s 687 mmHg 64%
11:00 +28°C° 0 mm 2 m/s 687 mmHg 63%
12:00 +28°C° 0 mm 2 m/s 687 mmHg 61%
13:00 +28°C° 0.1 mm 2 m/s 687 mmHg 62%
14:00 +29°C° 0.1 mm 2 m/s 687 mmHg 63%
15:00 +29°C° 0.1 mm 2 m/s 686 mmHg 64%
16:00 +28°C° 0.1 mm 2 m/s 686 mmHg 70%
17:00 +27°C° 0.1 mm 2 m/s 686 mmHg 75%
18:00 +26°C° 0.1 mm 2 m/s 685 mmHg 81%
19:00 +25°C° 0.1 mm 2 m/s 685 mmHg 84%
20:00 +23°C° 0.1 mm 2 m/s 685 mmHg 87%
21:00 +20°C° 0.1 mm 2 m/s 685 mmHg 91%
22:00 +20°C° 0.1 mm 2 m/s 685 mmHg 89%
23:00 +20°C° 0.1 mm 2 m/s 685 mmHg 88%

6 August, Vineri

Timp Temperatura Precipitaţii Vânt Presiune Umiditate
00:00 +20°C° 0.1 mm 2 m/s 685 mmHg 87%
01:00 +20°C° 0 mm 2 m/s 684 mmHg 83%
02:00 +20°C° 0 mm 2 m/s 684 mmHg 79%
03:00 +20°C° 0 mm 2 m/s 683 mmHg 75%
04:00 +20°C° 0 mm 2 m/s 683 mmHg 71%
05:00 +20°C° 0 mm 2 m/s 683 mmHg 68%
06:00 +21°C° 0 mm 2 m/s 683 mmHg 64%
07:00 +24°C° 0 mm 2 m/s 683 mmHg 59%
08:00 +26°C° 0 mm 1 m/s 684 mmHg 53%
09:00 +29°C° 0 mm 1 m/s 684 mmHg 48%
10:00 +30°C° 0 mm 2 m/s 684 mmHg 47%
11:00 +30°C° 0 mm 2 m/s 684 mmHg 47%
12:00 +31°C° 0 mm 2 m/s 684 mmHg 47%
13:00 +31°C° 0 mm 2 m/s 683 mmHg 45%
14:00 +33°C° 0 mm 3 m/s 683 mmHg 44%
15:00 +33°C° 0 mm 3 m/s 682 mmHg 43%
16:00 +31°C° 0 mm 3 m/s 682 mmHg 50%
17:00 +31°C° 0 mm 2 m/s 682 mmHg 57%
18:00 +30°C° 0 mm 2 m/s 681 mmHg 64%
19:00 +28°C° 0.3 mm 2 m/s 682 mmHg 71%
20:00 +26°C° 0.3 mm 2 m/s 682 mmHg 78%
21:00 +23°C° 0.3 mm 2 m/s 683 mmHg 85%
22:00 +23°C° 0 mm 2 m/s 682 mmHg 81%
23:00 +23°C° 0 mm 2 m/s 682 mmHg 78%

7 August, Sâmbătă

Timp Temperatura Precipitaţii Vânt Presiune Umiditate
00:00 +22°C° 0 mm 3 m/s 682 mmHg 74%
01:00 +24°C° 0 mm 3 m/s 681 mmHg 70%
02:00 +24°C° 0 mm 2 m/s 681 mmHg 67%
03:00 +24°C° 0 mm 2 m/s 681 mmHg 63%
04:00 +24°C° 0 mm 2 m/s 681 mmHg 61%
05:00 +24°C° 0 mm 2 m/s 681 mmHg 59%
06:00 +24°C° 0 mm 2 m/s 681 mmHg 57%
07:00 +26°C° 0 mm 1 m/s 681 mmHg 54%
08:00 +27°C° 0 mm 1 m/s 681 mmHg 50%
09:00 +29°C° 0 mm 1 m/s 682 mmHg 47%
10:00 +30°C° 0 mm 1 m/s 682 mmHg 45%
11:00 +30°C° 0 mm 1 m/s 682 mmHg 42%
12:00 +31°C° 0 mm 2 m/s 682 mmHg 40%
13:00 +31°C° 0.1 mm 2 m/s 682 mmHg 39%
14:00 +31°C° 0.1 mm 2 m/s 682 mmHg 38%
15:00 +32°C° 0.1 mm 2 m/s 683 mmHg 38%
16:00 +30°C° 0 mm 2 m/s 683 mmHg 46%
17:00 +29°C° 0 mm 1 m/s 683 mmHg 55%
18:00 +27°C° 0 mm 1 m/s 683 mmHg 64%
19:00 +26°C° 0.1 mm 1 m/s 683 mmHg 66%
20:00 +25°C° 0.1 mm 2 m/s 684 mmHg 68%
21:00 +23°C° 0.1 mm 2 m/s 684 mmHg 71%
22:00 +23°C° 0 mm 2 m/s 684 mmHg 69%
23:00 +23°C° 0 mm 2 m/s 684 mmHg 67%

8 August, Duminică

Timp Temperatura Precipitaţii Vânt Presiune Umiditate
00:00 +23°C° 0 mm 1 m/s 684 mmHg 66%
01:00 +21°C° 0.2 mm 2 m/s 684 mmHg 69%
02:00 +20°C° 0.2 mm 2 m/s 684 mmHg 73%
03:00 +20°C° 0.2 mm 2 m/s 684 mmHg 76%
04:00 +20°C° 0.3 mm 2 m/s 684 mmHg 78%
05:00 +20°C° 0.3 mm 2 m/s 685 mmHg 81%
06:00 +19°C° 0.3 mm 2 m/s 685 mmHg 83%
07:00 +21°C° 0.5 mm 2 m/s 685 mmHg 78%
08:00 +23°C° 0.5 mm 2 m/s 686 mmHg 74%
09:00 +25°C° 0.5 mm 2 m/s 686 mmHg 70%
10:00 +26°C° 0.7 mm 2 m/s 686 mmHg 68%
11:00 +26°C° 0.7 mm 2 m/s 686 mmHg 66%
12:00 +27°C° 0.7 mm 2 m/s 687 mmHg 64%
13:00 +26°C° 1.3 mm 2 m/s 687 mmHg 70%
14:00 +26°C° 1.3 mm 2 m/s 687 mmHg 75%
15:00 +25°C° 1.3 mm 3 m/s 687 mmHg 81%
16:00 +24°C° 1.1 mm 2 m/s 687 mmHg 84%
17:00 +24°C° 1.1 mm 2 m/s 688 mmHg 88%
18:00 +23°C° 1.1 mm 2 m/s 688 mmHg 92%
19:00 +21°C° 1.6 mm 2 m/s 688 mmHg 93%
20:00 +20°C° 1.6 mm 2 m/s 688 mmHg 94%
21:00 +19°C° 1.6 mm 2 m/s 689 mmHg 95%
22:00 +19°C° 0.8 mm 2 m/s 688 mmHg 94%
23:00 +19°C° 0.8 mm 2 m/s 688 mmHg 92%
Arată mai mult

Formular de consimțământ

Meteoprog și furnizorii noștri de servicii pot stoca și accesa date personale, precum cookies, identificatori de dispozitiv sau alte tehnologii similare pe dispozitivul dumneavoastră și procesa astfel de date pentru a personaliza conținutul și reclamele, dar și pentru a oferi caracteristici de social media și pentru a analiza traficul.

  • Stocarea și/sau accesarea informațiilor pe dispozitivul dumneavoastră

    Cookies, identificatori de dispozitiv sau alte informații pot fi stocate sau accesate pe dispozitiv în scopurile indicate mai sus.

  • Reclame și conținut personalizat, evaluarea reclamelor și a conținutului, informații despre audiențe și dezvoltarea produselor

    Reclamele și conținutul pot fi personalizate pe baza unui profil. Pot fi adăugate date suplimentare pentru a personaliza mai bine reclamele și conținutul. Performanța reclamelor și conținutului poate fi măsurată. Pot fi obținute informații despre utilizatorii care au văzut reclamele și conținutul. Aceste date pot fi utilizate pentru a dezvolta sau îmbunătăți experiența utilizatorilor, sistemele și software-ul.

Dând clic pe ‘Sunt de acord’, permiteți utilizarea cookie-urilor menționate, a identificatorilor de dispozitiv, balizelor web sau altor tehnologii similare. Setările pot fi modificate din browser-ul dispozitivului dumneavoastră.

În anumite scopuri, interesele legitime pot prima asupra consimțământului. Puteți citi mai multe informații în acest sens în Politica privind Confidențialitatea Datelor și Cookie.